Tracking 25709 objects as of 23-May-2022
HD Live streaming from Space Station
objects crossing your sky now

SL-12 R/B(AUX MOTOR)

Track SL-12 R/B(AUX MOTOR) now!
10-day predictions


NORAD ID: 15338
Int'l Code: 1984-106F
Perigee: 823.2 km
Apogee: 853.1 km
Inclination: 66.6 °
Period: 101.5 minutes
Semi major axis: 7209 km
RCS: 0.8334 m2 (medium)
Launch date: September 28, 1984
Source: Commonwealth of Independent States (former USSR) (CIS)
Launch site: TYURATAM MISSILE AND SPACE COMPLEX (TTMTR)

Note: This is a ROCKET BODY
aabbcc
Your satellite tracking list
Your tracking list is empty




NASA's NSSDC Master Catalog

Two Line Element Set (TLE):
1 15338U 84106F   22142.70106041  .00000003  00000-0  42473-4 0  9996
2 15338  66.5686 144.5144 0020761 260.7278  99.1465 14.18331824947357
Source of the keplerian elements: AFSPC